Location: Torrington
(42.0650°N, 104.1810°W)
Time: 22:28:11
(UTC-07:00)

Amateur Radio Satellites - All Passes

Search period start: 25 February 2017 21:58
Search period end: 26 February 2017 21:58
Location: Torrington, 42.0650°N, 104.1810°W

Satellite Date Start Highest point End Downlink Frequencies (MHz)
Time Altitude Azimuth
VELOX 1 25 Feb 21:59:34 22:01:31 13° 61° (ENE) 22:03:28 145.980
O/OREOS (USA 219) 25 Feb 22:00:16 22:04:26 40° 106° (ESE) 22:08:39 437.305
SPROUT 25 Feb 22:04:33 22:05:37 11° 61° (ENE) 22:06:41 437.525
DUCHIFAT 1 25 Feb 22:38:16 22:39:46 12° 90° (E) 22:41:15 145.980
AIST 2D 25 Feb 22:40:21 22:43:12 22° 95° (E) 22:46:02 435.315
YUBILEINY 25 Feb 22:45:17 22:52:48 34° 276° (W) 23:00:18 435.215
RS-15 25 Feb 22:45:41 22:55:32 26° 13° (NNE) 23:05:15 29.354- 29.394
EO-79 25 Feb 22:48:24 22:51:26 19° 93° (E) 22:54:27 145.935-145.965
SO-50 25 Feb 22:57:13 23:01:28 34° 312° (NW) 23:05:41 436.795
NO-84 25 Feb 23:01:12 23:05:09 47° 36° (NE) 23:09:20 435.350 FM
NANOSAT C BR1 25 Feb 23:04:36 23:08:11 25° 95° (E) 23:11:45 145.865
POLYITAN 1 25 Feb 23:05:33 23:09:19 29° 96° (E) 23:13:02 437.675
QB50P2 25 Feb 23:08:26 23:12:21 33° 97° (E) 23:16:12 145.880/145.840
ESTCUBE 1 25 Feb 23:10:33 23:14:48 39° 262° (W) 23:19:02 437.505/2401.250
LO-87 25 Feb 23:16:59 23:18:31 12° 268° (W) 23:20:04 145.935 - 145.965
DX 1 25 Feb 23:22:55 23:26:59 42° 71° (ENE) 23:31:05 434.975-435.025
FO-29 25 Feb 23:28:35 23:36:03 57° 291° (WNW) 23:42:50 435.910
BUGSAT 1 25 Feb 23:31:56 23:34:38 16° 92° (E) 23:37:18 437.445
TIGRISAT 25 Feb 23:32:41 23:35:43 17° 297° (WNW) 23:38:43 435.000
UNISAT 6 25 Feb 23:32:43 23:35:35 16° 297° (WNW) 23:38:24 437.425
VELOX 1 25 Feb 23:33:04 23:37:25 67° 258° (WSW) 23:41:48 145.980
UKube-1 25 Feb 23:33:53 23:37:52 39° 70° (ENE) 23:41:54 .
SPROUT 25 Feb 23:36:39 23:40:54 76° 259° (WSW) 23:45:11 437.525
O/OREOS (USA 219) 25 Feb 23:40:32 23:44:00 22° 304° (NW) 23:47:30 437.305
50 SAT 25 Feb 23:40:41 23:44:10 71° 258° (WSW) 23:47:40 437.505
DUCHIFAT 1 26 Feb 00:11:36 00:15:50 62° 286° (WNW) 00:20:01 145.980
AIST 2D 26 Feb 00:13:34 00:16:21 22° 291° (WNW) 00:19:06 435.315
EO-79 26 Feb 00:23:21 00:27:21 38° 289° (WNW) 00:31:18 145.935-145.965
PCSat 26 Feb 00:23:47 00:28:59 43° 53° (NE) 00:34:08 145.827
Gurwin Techsat 1B 26 Feb 00:31:38 00:33:34 12° 88° (E) 00:35:31 435.225
NO-84 26 Feb 00:39:08 00:42:45 28° 231° (SW) 00:46:29 435.350 FM
NANOSAT C BR1 26 Feb 00:40:12 00:43:51 28° 292° (WNW) 00:47:30 145.865
POLYITAN 1 26 Feb 00:41:26 00:44:59 26° 292° (WNW) 00:48:31 437.675
QB50P2 26 Feb 00:44:36 00:47:56 22° 293° (WNW) 00:51:16 145.880/145.840
RS-15 26 Feb 00:59:49 01:11:53 53° 44° (NE) 01:23:27 29.354- 29.394
DX 1 26 Feb 01:00:26 01:03:21 18° 267° (W) 01:06:17 434.975-435.025
BUGSAT 1 26 Feb 01:06:09 01:10:11 44° 288° (WNW) 01:14:13 437.445
UKube-1 26 Feb 01:11:03 01:14:03 18° 266° (W) 01:17:04 .
FO-29 26 Feb 01:16:31 01:19:18 12° 312° (NW) 01:22:02 435.910
Oscar 19 26 Feb 01:18:21 01:23:26 60° 101° (ESE) 01:28:30 437.125/150
ITUPSAT 1 26 Feb 01:27:41 01:32:16 46° 70° (ENE) 01:36:52 437.325
BEESAT 26 Feb 01:33:43 01:38:21 54° 72° (ENE) 01:43:03 436.000
MOZHAYETS 4 26 Feb 01:49:10 01:53:04 27° 67° (ENE) 01:56:58
ITAMSAT 1 26 Feb 01:55:38 01:58:01 13° 89° (E) 02:00:23 435.822/435.867
PCSat 26 Feb 02:07:35 02:12:09 28° 251° (WSW) 02:16:41 145.827
Gurwin Techsat 1B 26 Feb 02:08:49 02:14:10 85° 285° (WNW) 02:19:30 435.225
KKS-1 26 Feb 02:16:36 02:18:54 14° 62° (ENE) 02:21:13 437.445
AO-7 26 Feb 02:40:50 02:48:02 32° 96° (E) 02:55:10 .
STARS 26 Feb 02:48:39 02:50:51 14° 62° (ENE) 02:53:02 437.465
CUBESAT XI-V 26 Feb 02:51:09 02:54:29 20° 65° (ENE) 02:57:50 437.345
Oscar 19 26 Feb 02:58:53 03:02:16 18° 298° (WNW) 03:05:39 437.125/150
AO-85 26 Feb 03:00:17 03:03:42 21° 113° (ESE) 03:06:57 145.980
ITUPSAT 1 26 Feb 03:06:50 03:10:18 20° 267° (W) 03:13:47 437.325
RS-15 26 Feb 03:12:48 03:24:30 54° 249° (WSW) 03:35:43 29.354- 29.394
BEESAT 26 Feb 03:13:25 03:16:27 17° 268° (W) 03:19:30 436.000
MOZHAYETS 4 26 Feb 03:25:58 03:30:05 31° 264° (W) 03:34:14
ITAMSAT 1 26 Feb 03:32:48 03:38:03 77° 286° (WNW) 03:43:16 435.822/435.867
KKS-1 26 Feb 03:50:35 03:54:57 61° 259° (W) 03:59:21 437.445
Gurwin Techsat 1B 26 Feb 03:51:13 03:53:16 12° 303° (WNW) 03:55:20 435.225
STARS 26 Feb 04:22:21 04:26:40 62° 259° (W) 04:31:02 437.465
CUBESAT XI-V 26 Feb 04:27:05 04:31:32 44° 261° (W) 04:36:01 437.345
AO-7 26 Feb 04:33:04 04:41:11 60° 295° (WNW) 04:49:15 .
M-CUBED/EXP-1 PRIME 26 Feb 04:33:53 04:37:04 47° 255° (WSW) 04:40:14 437.505
AO-85 26 Feb 04:39:35 04:43:53 43° 308° (NW) 04:47:55 145.980
CUTE-I 26 Feb 04:50:10 04:51:01 10° 87° (E) 04:51:51 437.470
DOVE 4 26 Feb 04:51:02 04:53:26 14° 91° (E) 04:55:51 437.250
KAITUO 1B 26 Feb 05:11:01 05:12:18 11° 90° (E) 05:13:33 145.475/437.950
STRAND 1 26 Feb 05:13:35 05:17:05 19° 62° (ENE) 05:20:36 437.568
ITAMSAT 1 26 Feb 05:15:17 05:16:37 11° 304° (NW) 05:17:57 435.822/435.867
XW-2F 26 Feb 05:16:12 05:18:39 16° 92° (E) 05:21:03 145.980 - 146.000
BEESAT 3 26 Feb 05:18:02 05:21:28 30° 115° (ESE) 05:24:57 437.485
XW-2D 26 Feb 05:21:04 05:23:55 20° 94° (E) 05:26:43 145.860 - 145.880
XW-2B 26 Feb 05:26:00 05:29:00 22° 94° (E) 05:31:59 145.730 - 145.750
XW-2C 26 Feb 05:34:26 05:37:46 28° 96° (E) 05:41:03 145.795 - 145.815
NUDT-PHONESAT 26 Feb 05:43:09 05:46:27 28° 96° (E) 05:49:42 437.300
SO-50 26 Feb 05:47:30 05:51:35 32° 48° (NE) 05:55:36 436.795
LilacSat-2 26 Feb 05:51:57 05:55:41 47° 99° (E) 05:59:22 437.200
BEESAT 2 26 Feb 05:58:07 06:01:41 33° 116° (ESE) 06:05:18 435.950
HO-68 26 Feb 06:13:13 06:17:39 17° 90° (E) 06:22:03 435.675
CUTE-I 26 Feb 06:26:22 06:31:48 86° 105° (ESE) 06:37:11 437.470
DOVE 4 26 Feb 06:26:45 06:31:27 68° 285° (WNW) 06:36:26 437.250
AO-7 26 Feb 06:28:15 06:32:14 14° 316° (NW) 06:36:13 .
O/OREOS (USA 219) 26 Feb 06:32:34 06:33:52 11° 49° (NE) 06:35:09 437.305
CUTE 1.7 + AOD 2 26 Feb 06:38:59 06:41:53 18° 92° (E) 06:44:46 437.475
ISS 26 Feb 06:39:05 06:41:34 20° 134° (SE) 06:44:05 437.550
XW-2A 26 Feb 06:41:44 06:44:39 25° 96° (E) 06:47:33 145.665 - 145.685
KAITUO 1B 26 Feb 06:42:57 06:46:36 48° 287° (WNW) 06:50:13 145.475/437.950
XW-2F 26 Feb 06:49:26 06:52:55 34° 289° (WNW) 06:56:21 145.980 - 146.000
STRAND 1 26 Feb 06:50:44 06:55:47 58° 259° (W) 07:00:54 437.568
XW-2D 26 Feb 06:54:48 06:58:07 28° 290° (WNW) 07:01:24 145.860 - 145.880
BEESAT 3 26 Feb 06:55:45 06:59:04 26° 313° (NW) 07:02:27 437.485
XW-2B 26 Feb 06:59:57 07:03:11 26° 290° (WNW) 07:06:21 145.730 - 145.750
Tancredo 1 26 Feb 07:01:50 07:04:49 34° 138° (SE) 07:07:48 437.200
CUBEBUG 2 26 Feb 07:06:50 07:10:11 19° 91° (E) 07:13:30 437.445
XW-2C 26 Feb 07:08:54 07:11:49 21° 292° (WNW) 07:14:40 145.795 - 145.815
NUDT-PHONESAT 26 Feb 07:17:26 07:20:12 20° 292° (WNW) 07:22:57 437.300
AAUSAT CUBESAT 2 26 Feb 07:21:01 07:23:41 17° 92° (E) 07:26:20 437.432
LilacSat-2 26 Feb 07:27:42 07:29:33 13° 296° (WNW) 07:31:22 437.200
SO-50 26 Feb 07:28:02 07:31:59 30° 245° (WSW) 07:35:54 436.795
SEEDS 26 Feb 07:33:35 07:37:37 47° 99° (E) 07:41:38 437.485
BEESAT 2 26 Feb 07:36:14 07:39:31 24° 314° (NW) 07:42:50 435.950
UWE-3 26 Feb 07:41:45 07:45:42 26° 94° (E) 07:49:34 435.000/436.395/437.385
FO-29 26 Feb 07:57:59 08:02:21 17° 52° (NE) 08:06:52 435.910
HO-68 26 Feb 07:59:00 08:06:11 85° 287° (WNW) 08:13:20 435.675
ZACube-1 26 Feb 08:00:42 08:04:26 24° 94° (E) 08:08:05 437.345
CUTE-I 26 Feb 08:08:23 08:11:05 14° 302° (WNW) 08:13:48 437.470
O/OREOS (USA 219) 26 Feb 08:09:24 08:14:00 84° 69° (ENE) 08:18:36 437.305
CUTE 1.7 + AOD 2 26 Feb 08:13:57 08:17:52 38° 289° (WNW) 08:21:46 437.475
ISS 26 Feb 08:14:35 08:17:48 51° 330° (NNW) 08:21:03 437.550
XW-2A 26 Feb 08:14:48 08:17:16 18° 292° (WNW) 08:19:43 145.665 - 145.685
PRISM 26 Feb 08:24:50 08:28:51 64° 75° (ENE) 08:32:54 437.425
Tancredo 1 26 Feb 08:38:06 08:41:06 33° 335° (NNW) 08:44:06 437.200
CUBEBUG 2 26 Feb 08:42:27 08:47:01 47° 288° (WNW) 08:51:31 437.445
DELFI C3 26 Feb 08:44:47 08:47:18 16° 93° (E) 08:49:49 145.870
AO-73 26 Feb 08:47:59 08:52:33 72° 101° (ESE) 08:56:59 145.935
Oscar 11 26 Feb 08:53:27 08:57:47 71° 101° (E) 09:02:04 .
UNISAT 6 26 Feb 08:53:32 08:57:54 52° 73° (ENE) 09:02:25 437.425
TIGRISAT 26 Feb 08:53:33 08:57:53 48° 72° (ENE) 09:02:21 435.000
AAUSAT CUBESAT 2 26 Feb 08:55:28 08:59:18 39° 288° (WNW) 09:03:07 437.432
SEEDS 26 Feb 09:10:28 09:12:55 15° 295° (WNW) 09:15:21 437.485
UWE-3 26 Feb 09:17:59 09:22:08 32° 291° (WNW) 09:26:12 435.000/436.395/437.385
ZACube-1 26 Feb 09:36:39 09:40:43 33° 291° (WNW) 09:44:43 437.345
FO-29 26 Feb 09:38:49 09:45:57 74° 73° (ENE) 09:53:46 435.910
EO-79 26 Feb 09:41:49 09:44:20 16° 64° (ENE) 09:46:51 145.935-145.965
HO-68 26 Feb 09:48:26 09:52:54 18° 307° (NW) 09:57:23 435.675
YUBILEINY 26 Feb 09:48:50 09:57:25 60° 91° (E) 10:06:01 435.215
ISS 26 Feb 09:52:30 09:54:50 18° 349° (N) 09:57:10 437.550
NANOSAT C BR1 26 Feb 09:57:21 10:00:30 21° 66° (ENE) 10:03:40 145.865
POLYITAN 1 26 Feb 09:58:40 10:02:02 23° 67° (ENE) 10:05:26 437.675
QB50P2 26 Feb 10:01:29 10:05:02 26° 68° (ENE) 10:08:36 145.880/145.840
PRISM 26 Feb 10:04:03 10:04:33 10° 270° (W) 10:05:03 437.425
Tancredo 1 26 Feb 10:16:01 10:18:05 16° 355° (N) 10:20:09 437.200
DELFI C3 26 Feb 10:18:37 10:22:14 36° 288° (WNW) 10:25:50 145.870
BUGSAT 1 26 Feb 10:23:13 10:24:54 12° 62° (ENE) 10:26:36 437.445
AO-73 26 Feb 10:26:11 10:28:09 13° 299° (WNW) 10:30:04 145.935
Oscar 11 26 Feb 10:31:47 10:33:19 12° 298° (WNW) 10:34:51 .
TIGRISAT 26 Feb 10:31:57 10:34:52 17° 269° (W) 10:37:49 435.000
UNISAT 6 26 Feb 10:32:14 10:34:57 16° 270° (W) 10:37:42 437.425
LO-87 26 Feb 10:41:16 10:44:45 46° 99° (E) 10:48:14 145.935 - 145.965
AIST 2D 26 Feb 10:47:22 10:50:52 56° 260° (W) 10:54:24 435.315
Oscar 19 26 Feb 10:59:59 11:02:06 13° 58° (ENE) 11:04:14 437.125/150
ESTCUBE 1 26 Feb 11:02:16 11:06:30 40° 98° (E) 11:10:41 437.505/2401.250
DUCHIFAT 1 26 Feb 11:03:14 11:07:26 82° 255° (WSW) 11:11:42 145.980
EO-79 26 Feb 11:15:35 11:19:40 49° 260° (W) 11:23:49 145.935-145.965
SPROUT 26 Feb 11:22:51 11:25:47 18° 93° (E) 11:28:42 437.525
VELOX 1 26 Feb 11:23:09 11:26:35 22° 94° (E) 11:30:00 145.980
FO-29 26 Feb 11:26:13 11:31:42 23° 272° (W) 11:37:31 435.910
ISS 26 Feb 11:29:56 11:32:14 17° 10° (N) 11:34:32 437.550
AO-85 26 Feb 11:30:33 11:33:28 20° 44° (NE) 11:36:23 145.980
NANOSAT C BR1 26 Feb 11:32:07 11:35:59 35° 263° (W) 11:39:54 145.865
POLYITAN 1 26 Feb 11:33:54 11:37:40 31° 264° (W) 11:41:29 437.675
QB50P2 26 Feb 11:37:08 11:40:44 27° 264° (W) 11:44:22 145.880/145.840
YUBILEINY 26 Feb 11:47:09 11:54:43 31° 292° (WNW) 12:02:20 435.215
Gurwin Techsat 1B 26 Feb 11:52:09 11:56:08 22° 63° (ENE) 12:00:07 435.225
Tancredo 1 26 Feb 11:52:47 11:55:15 20° 15° (NNE) 11:57:43 437.200
AO-7 26 Feb 11:55:06 11:57:09 11° 40° (NE) 11:59:13 .
BUGSAT 1 26 Feb 11:55:43 11:59:43 60° 259° (WSW) 12:03:49 437.445
LO-87 26 Feb 12:16:25 12:17:48 12° 295° (WNW) 12:19:11 145.935 - 145.965
Oscar 19 26 Feb 12:35:30 12:40:40 89° 278° (W) 12:45:50 437.125/150
50 SAT 26 Feb 12:38:01 12:41:28 68° 285° (WNW) 12:44:54 437.505
ESTCUBE 1 26 Feb 12:39:44 12:43:02 21° 295° (WNW) 12:46:19 437.505/2401.250
DX 1 26 Feb 12:46:14 12:50:36 76° 102° (ESE) 12:54:57 434.975-435.025
UKube-1 26 Feb 12:55:52 13:00:12 69° 102° (ESE) 13:04:29 .
SPROUT 26 Feb 12:57:49 13:01:52 41° 289° (WNW) 13:05:55 437.525
VELOX 1 26 Feb 12:59:05 13:03:06 35° 290° (WNW) 13:07:07 145.980
ISS 26 Feb 13:06:04 13:09:17 48° 29° (NNE) 13:12:28 437.550
AO-85 26 Feb 13:10:19 13:14:01 41° 242° (WSW) 13:17:47 145.980
ITAMSAT 1 26 Feb 13:13:17 13:17:17 23° 63° (ENE) 13:21:18 435.822/435.867
Tancredo 1 26 Feb 13:28:42 13:31:56 78° 34° (NE) 13:35:08 437.200
ITUPSAT 1 26 Feb 13:30:17 13:31:31 11° 89° (E) 13:32:46 437.325
Gurwin Techsat 1B 26 Feb 13:30:32 13:35:42 51° 260° (W) 13:40:54 435.225
BEESAT 3 26 Feb 13:34:18 13:37:36 24° 46° (NE) 13:40:53 437.485
BEESAT 26 Feb 13:35:11 13:37:21 13° 90° (E) 13:39:31 436.000
AO-7 26 Feb 13:40:00 13:47:50 47° 62° (ENE) 13:55:40 .
BEESAT 2 26 Feb 14:15:18 14:18:45 26° 47° (NE) 14:22:11 435.950
Oscar 19 26 Feb 14:19:59 14:20:40 10° 272° (W) 14:21:20 437.125/150
DX 1 26 Feb 14:24:46 14:26:10 11° 300° (WNW) 14:27:34 434.975-435.025
UKube-1 26 Feb 14:33:55 14:35:39 12° 299° (WNW) 14:37:23 .
ISS 26 Feb 14:42:59 14:45:33 21° 226° (SW) 14:48:05 437.550
ITAMSAT 1 26 Feb 14:51:23 14:56:24 48° 260° (W) 15:01:29 435.822/435.867
ITUPSAT 1 26 Feb 15:05:06 15:09:56 79° 285° (WNW) 15:14:42 437.325
PCSat 26 Feb 15:06:02 15:10:54 35° 111° (ESE) 15:15:48 145.827
Tancredo 1 26 Feb 15:06:27 15:07:47 12° 230° (SW) 15:09:06 437.200
BEESAT 26 Feb 15:10:49 15:15:36 68° 287° (WNW) 15:20:19 436.000
BEESAT 3 26 Feb 15:11:36 15:15:17 35° 244° (WSW) 15:18:56 437.485
MOZHAYETS 4 26 Feb 15:19:51 15:24:24 58° 100° (E) 15:28:54
RS-15 26 Feb 15:25:49 15:35:03 28° 101° (E) 15:44:31 29.354- 29.394
AO-7 26 Feb 15:32:50 15:40:37 42° 261° (W) 15:48:27 .
KKS-1 26 Feb 15:41:26 15:45:04 24° 95° (E) 15:48:41 437.445
BEESAT 2 26 Feb 15:52:55 15:56:33 32° 245° (WSW) 16:00:08 435.950
NO-84 26 Feb 15:57:54 16:00:48 34° 131° (SE) 16:03:56 435.350 FM
DOVE 4 26 Feb 15:58:24 15:59:59 12° 62° (ENE) 16:01:35 437.250
XW-2D 26 Feb 16:04:21 16:05:41 12° 63° (ENE) 16:07:01 145.860 - 145.880
XW-2B 26 Feb 16:09:00 16:10:43 13° 64° (ENE) 16:12:26 145.730 - 145.750
CUTE-I 26 Feb 16:10:38 16:14:27 20° 62° (ENE) 16:18:17 437.470
STARS 26 Feb 16:11:41 16:15:11 22° 95° (E) 16:18:40 437.465
XW-2C 26 Feb 16:16:58 16:19:21 16° 66° (ENE) 16:21:43 145.795 - 145.815
CUBESAT XI-V 26 Feb 16:22:57 16:27:19 42° 98° (E) 16:31:39 437.345
NUDT-PHONESAT 26 Feb 16:23:58 16:26:11 15° 66° (ENE) 16:28:25 437.300
LilacSat-2 26 Feb 16:34:21 16:37:35 26° 69° (ENE) 16:40:49 437.200
HO-68 26 Feb 16:44:05 16:47:58 16° 51° (NE) 16:51:51 435.675
PCSat 26 Feb 16:49:18 16:54:16 36° 309° (NW) 16:59:16 145.827
MOZHAYETS 4 26 Feb 16:58:21 17:01:04 16° 297° (WNW) 17:03:46
XW-2A 26 Feb 17:16:20 17:16:30 10° 64° (ENE) 17:16:42 145.665 - 145.685
KKS-1 26 Feb 17:17:38 17:21:39 33° 291° (WNW) 17:25:38 437.445
KAITUO 1B 26 Feb 17:22:47 17:26:35 78° 76° (ENE) 17:30:25 145.475/437.950
XW-2F 26 Feb 17:29:59 17:33:47 71° 258° (WSW) 17:37:39 145.980 - 146.000
CUTE 1.7 + AOD 2 26 Feb 17:32:40 17:35:04 15° 64° (ENE) 17:37:28 437.475
DOVE 4 26 Feb 17:33:04 17:37:09 61° 259° (W) 17:41:19 437.250
RS-15 26 Feb 17:34:03 17:46:02 85° 303° (WNW) 17:58:31 29.354- 29.394
NO-84 26 Feb 17:35:34 17:38:29 28° 331° (NNW) 17:41:39 435.350 FM
XW-2D 26 Feb 17:35:35 17:39:22 57° 260° (W) 17:43:11 145.860 - 145.880
XW-2B 26 Feb 17:40:43 17:44:28 50° 260° (W) 17:48:15 145.730 - 145.750
M-CUBED/EXP-1 PRIME 26 Feb 17:44:55 17:48:44 83° 289° (WNW) 17:52:52 437.505
STARS 26 Feb 17:47:34 17:51:35 34° 291° (WNW) 17:55:35 437.465
CUTE-I 26 Feb 17:48:48 17:54:02 57° 259° (W) 17:59:20 437.470
XW-2C 26 Feb 17:49:37 17:53:13 39° 262° (W) 17:56:52 145.795 - 145.815
NUDT-PHONESAT 26 Feb 17:56:15 17:59:47 39° 262° (W) 18:03:22 437.300
CUBESAT XI-V 26 Feb 18:01:02 18:04:23 20° 295° (WNW) 18:07:45 437.345
CUBEBUG 2 26 Feb 18:05:46 18:08:35 17° 63° (ENE) 18:11:27 437.445
LilacSat-2 26 Feb 18:08:41 18:11:48 23° 265° (W) 18:14:57 437.200
AAUSAT CUBESAT 2 26 Feb 18:12:31 18:14:24 13° 63° (ENE) 18:16:15 437.432
SEEDS 26 Feb 18:25:26 18:29:16 35° 71° (ENE) 18:33:07 437.485
HO-68 26 Feb 18:27:22 18:34:31 75° 71° (ENE) 18:41:41 435.675
UWE-3 26 Feb 18:39:11 18:42:41 23° 66° (ENE) 18:46:16 435.000/436.395/437.385
XW-2A 26 Feb 18:45:32 18:48:49 49° 260° (W) 18:52:10 145.665 - 145.685
ZACube-1 26 Feb 18:56:56 19:00:18 21° 66° (ENE) 19:03:43 437.345
STRAND 1 26 Feb 19:00:46 19:05:44 46° 99° (E) 19:10:39 437.568
CUTE 1.7 + AOD 2 26 Feb 19:06:17 19:10:28 53° 260° (W) 19:14:40 437.475
NO-84 26 Feb 19:15:40 19:17:13 12° 353° (N) 19:18:49 435.350 FM
DELFI C3 26 Feb 19:32:21 19:33:27 11° 63° (ENE) 19:34:33 145.870
CUBEBUG 2 26 Feb 19:40:22 19:44:43 53° 261° (W) 19:49:14 437.445
AO-73 26 Feb 19:43:15 19:47:37 57° 74° (ENE) 19:52:06 145.935
AAUSAT CUBESAT 2 26 Feb 19:45:16 19:49:22 59° 260° (W) 19:53:28 437.432
Oscar 11 26 Feb 19:48:11 19:52:26 56° 74° (ENE) 19:56:43 .
RS-15 26 Feb 19:49:52 20:00:36 34° 331° (NNW) 20:11:34 29.354- 29.394
YUBILEINY 26 Feb 19:58:54 20:06:20 30° 68° (ENE) 20:13:41 435.215
SEEDS 26 Feb 20:01:54 20:05:02 20° 267° (W) 20:08:11 437.485
UWE-3 26 Feb 20:14:46 20:18:53 36° 263° (W) 20:23:09 435.000/436.395/437.385
HO-68 26 Feb 20:17:45 20:22:52 21° 269° (W) 20:28:01 435.675
ZACube-1 26 Feb 20:32:06 20:36:17 39° 263° (W) 20:40:35 437.345
STRAND 1 26 Feb 20:40:36 20:44:35 23° 296° (WNW) 20:48:34 437.568
UNISAT 6 26 Feb 20:47:07 20:48:36 11° 88° (E) 20:50:04 437.425
TIGRISAT 26 Feb 20:47:35 20:48:21 10° 88° (E) 20:49:06 435.000
FO-29 26 Feb 20:53:14 20:54:36 11° 80° (E) 20:55:58 435.910
NO-84 26 Feb 20:54:01 20:56:16 15° 15° (NNE) 20:58:35 435.350 FM
DELFI C3 26 Feb 21:03:48 21:07:42 63° 258° (WSW) 21:11:39 145.870
LO-87 26 Feb 21:18:27 21:21:06 20° 68° (ENE) 21:23:45 145.935 - 145.965
AO-73 26 Feb 21:21:51 21:24:13 14° 270° (W) 21:26:37 145.935
Oscar 11 26 Feb 21:26:46 21:28:54 13° 270° (W) 21:31:03 .
PRISM 26 Feb 21:40:42 21:44:48 82° 284° (WNW) 21:48:53 437.425
SO-50 26 Feb 21:41:35 21:46:15 75° 122° (ESE) 21:50:53 436.795
